Presidio Lely Intl, Presidio,, TX

1:51 PM CDT on July 27, 2017 (GMT -0500)
Presidio Lely Intl, Presidio,

Weather History for KPRS - February, 2014

Change the Weather History Date:

Monday, February 24, 2014

  Actual Average (KMRF) Record (KMRF)
Temperature  
Mean Temperature 70 °F -  
Max Temperature 82 °F 58 °F 77 °F (1998)
Min Temperature 58 °F 29 °F 19 °F (2016)
Cooling Degree Days 5    
Growing Degree Days 20 (Base 50)    
Moisture  
Dew Point 20 °F    
Average Humidity 16    
Maximum Humidity 28    
Minimum Humidity 9    
Precipitation  
Precipitation 0.00 in - - ()
Sea Level Pressure  
Sea Level Pressure 29.99 in    
Wind  
Wind Speed 5 mph (North)    
Max Wind Speed 13 mph    
Max Gust Speed 17 mph    
Visibility 10 miles    
Events      
Averages and records for this station are not official NWS values.
T = Trace of Precipitation, MM = Missing Value Source: NWS Daily Summary

Daily Weather History Graph

Daily Weather History Graph

Search for Another Location

Airport or City:

Trip Planner

Search our weather history database for the weather conditions in past years. The results will help you decide how hot, cold, wet, or windy it might be!

Date:

Astronomy

Feb. 24, 2014 Rise Set
Actual Time 7:28 AM CST 6:53 PM CST
Civil Twilight 7:04 AM CST 7:17 PM CST
Nautical Twilight 6:36 AM CST 7:45 PM CST
Astronomical Twilight 6:08 AM CST 8:12 PM CST
Moon 3:15 AM CST (2/24) 2:10 PM CST (2/24)
Length of Visible Light 12h 13m
Length of Day
11h 25m
Waning Crescent, 28% of the Moon is Illuminated
Feb 24
Waning Crescent
Mar 1
New
Mar 8
First Quarter
Mar 16
Full
Mar 23
Last Quarter

Hourly Weather History & Observations

Time (CST) Temp. Dew Point Humidity Pressure Visibility Wind Dir Wind Speed Gust Speed Precip Events Conditions
12:15 AM 70.7 °F 12.9 °F 11% 30.02 in 10.0 mi NE 5.8 mph - N/A   Clear
12:35 AM 70.9 °F 13.1 °F 11% 30.00 in 10.0 mi North 10.4 mph - N/A   Clear
12:55 AM 70.7 °F 14.0 °F 11% 30.00 in 10.0 mi North 6.9 mph - N/A   Clear
1:15 AM 68.5 °F 15.4 °F 13% 30.01 in 10.0 mi SSW 4.6 mph - N/A   Clear
1:35 AM 67.8 °F 14.7 °F 13% 30.01 in 10.0 mi Calm Calm - N/A   Clear
1:55 AM 66.9 °F 14.4 °F 13% 30.01 in 10.0 mi ENE 4.6 mph - N/A   Clear
2:15 AM 67.1 °F 14.5 °F 13% 30.00 in 10.0 mi NNE 5.8 mph - N/A   Clear
2:35 AM 67.5 °F 20.3 °F 17% 29.99 in 10.0 mi NNW 8.1 mph - N/A   Clear
2:55 AM 66.6 °F 19.9 °F 17% 30.00 in 10.0 mi NNE 5.8 mph - N/A   Clear
3:15 AM 66.2 °F 21.2 °F 18% 29.98 in 10.0 mi North 10.4 mph - N/A   Clear
3:35 AM 65.5 °F 21.6 °F 19% 29.98 in 10.0 mi North 5.8 mph - N/A   Clear
3:55 AM 63.5 °F 22.1 °F 21% 29.98 in 10.0 mi North 5.8 mph - N/A   Clear
4:15 AM 64.8 °F 23.9 °F 21% 29.98 in 10.0 mi North 4.6 mph - N/A   Clear
4:35 AM 64.9 °F 23.9 °F 21% 29.95 in 10.0 mi North 8.1 mph - N/A   Clear
4:55 AM 63.5 °F 22.5 °F 21% 29.97 in 10.0 mi North 8.1 mph - N/A   Clear
5:15 AM 63.1 °F 20.8 °F 20% 29.98 in 10.0 mi North 6.9 mph - N/A   Clear
5:35 AM 61.9 °F 20.1 °F 20% 29.98 in 10.0 mi North 9.2 mph - N/A   Clear
5:55 AM 61.5 °F 19.4 °F 20% 29.99 in 10.0 mi North 8.1 mph - N/A   Clear
6:15 AM 59.9 °F 19.4 °F 21% 29.99 in 10.0 mi North 12.7 mph - N/A   Clear
6:35 AM 60.1 °F 20.3 °F 22% 30.00 in 10.0 mi North 10.4 mph - N/A   Clear
6:55 AM 59.2 °F 19.9 °F 22% 30.01 in 10.0 mi North 8.1 mph - N/A   Clear
7:15 AM 58.1 °F 20.3 °F 23% 30.02 in 10.0 mi North 8.1 mph - N/A   Clear
7:35 AM 59.2 °F 21.0 °F 23% 30.03 in 10.0 mi North 8.1 mph - N/A   Clear
7:55 AM 59.0 °F 21.2 °F 23% 30.04 in 10.0 mi Calm Calm - N/A   Clear
8:15 AM 59.9 °F 21.2 °F 22% 30.05 in 10.0 mi Calm Calm - N/A   Clear
8:35 AM 61.3 °F 21.7 °F 22% 30.07 in 10.0 mi Calm Calm - N/A   Clear
8:55 AM 62.6 °F 19.6 °F 19% 30.08 in 10.0 mi Calm Calm - N/A   Clear
9:15 AM 62.1 °F 19.4 °F 19% 30.07 in 10.0 mi Calm Calm - N/A   Clear
9:35 AM 63.7 °F 19.4 °F 18% 30.08 in 10.0 mi Calm Calm - N/A   Clear
9:55 AM 67.1 °F 20.1 °F 17% 30.08 in 10.0 mi Calm Calm - N/A   Clear
10:15 AM 68.7 °F 20.3 °F 16% 30.09 in 10.0 mi SSW 3.5 mph - N/A   Clear
10:35 AM 70.0 °F 20.1 °F 15% 30.08 in 10.0 mi Calm Calm - N/A   Clear
10:55 AM 72.3 °F 21.0 °F 14% 30.08 in 10.0 mi Calm Calm - N/A   Clear
11:15 AM 72.3 °F 21.0 °F 14% 30.07 in 10.0 mi South 5.8 mph - N/A   Clear
11:35 AM 72.9 °F 21.4 °F 14% 30.07 in 10.0 mi SW 3.5 mph - N/A   Clear
11:55 AM 74.3 °F 20.8 °F 13% 30.06 in 10.0 mi Calm Calm - N/A   Clear
12:15 PM 75.4 °F 20.7 °F 13% 30.05 in 10.0 mi South 3.5 mph - N/A   Clear
12:35 PM 75.6 °F 19.6 °F 12% 30.04 in 10.0 mi SSE 5.8 mph - N/A   Clear
12:55 PM 76.5 °F 21.0 °F 13% 30.03 in 10.0 mi SSW 6.9 mph - N/A   Clear
1:15 PM 78.1 °F 20.8 °F 12% 30.02 in 10.0 mi West 4.6 mph - N/A   Clear
1:35 PM 79.0 °F 20.7 °F 11% 29.99 in 10.0 mi Calm Calm - N/A   Clear
1:55 PM 79.9 °F 19.9 °F 11% 29.99 in 10.0 mi SSW 4.6 mph - N/A   Clear
2:15 PM 80.2 °F 21.0 °F 11% 29.97 in 10.0 mi South 3.5 mph - N/A   Scattered Clouds
2:35 PM 80.6 °F 21.2 °F 11% 29.96 in 10.0 mi Calm Calm - N/A   Clear
2:55 PM 81.5 °F 20.7 °F 10% 29.96 in 10.0 mi Calm Calm - N/A   Clear
3:15 PM 82.8 °F 20.3 °F 10% 29.95 in 10.0 mi SW 4.6 mph - N/A   Clear
3:35 PM 82.8 °F 19.2 °F 9% 29.94 in 10.0 mi Calm Calm - N/A   Clear
3:55 PM 82.8 °F 18.3 °F 9% 29.94 in 10.0 mi SW 3.5 mph - N/A   Clear
4:15 PM 82.4 °F 18.3 °F 9% 29.93 in 10.0 mi North 3.5 mph - N/A   Clear
4:35 PM 82.4 °F 17.2 °F 9% 29.93 in 10.0 mi Calm Calm - N/A   Clear
4:55 PM 82.0 °F 16.9 °F 9% 29.92 in 10.0 mi WSW 3.5 mph - N/A   Clear
5:15 PM 81.5 °F 16.7 °F 9% 29.92 in 10.0 mi Calm Calm - N/A   Clear
5:35 PM 81.7 °F 16.7 °F 9% 29.91 in 10.0 mi Calm Calm - N/A   Clear
5:55 PM 81.5 °F 17.6 °F 9% 29.92 in 10.0 mi Calm Calm - N/A   Clear
6:15 PM 81.1 °F 17.6 °F 9% 29.93 in 10.0 mi Calm Calm - N/A   Clear
6:35 PM 80.6 °F 17.4 °F 9% 29.93 in 10.0 mi Calm Calm - N/A   Clear
6:55 PM 79.7 °F 17.6 °F 10% 29.93 in 10.0 mi Calm Calm - N/A   Clear
7:15 PM 78.8 °F 17.6 °F 10% 29.93 in 10.0 mi Calm Calm - N/A   Clear
7:35 PM 77.9 °F 17.6 °F 10% 29.93 in 10.0 mi Calm Calm - N/A   Clear
7:55 PM 74.7 °F 16.7 °F 11% 29.93 in 10.0 mi Calm Calm - N/A   Clear
8:15 PM 72.5 °F 16.3 °F 12% 29.94 in 10.0 mi North 8.1 mph - N/A   Clear
8:35 PM 72.1 °F 16.3 °F 12% 29.95 in 10.0 mi North 9.2 mph - N/A   Clear
8:55 PM 71.8 °F 16.7 °F 12% 29.95 in 10.0 mi North 6.9 mph - N/A   Clear
9:15 PM 72.3 °F 16.7 °F 12% 29.96 in 10.0 mi North 6.9 mph - N/A   Clear
9:35 PM 71.6 °F 17.2 °F 13% 29.96 in 10.0 mi North 8.1 mph - N/A   Clear
9:55 PM 73.8 °F 25.9 °F 17% 29.96 in 10.0 mi NNE 11.5 mph 16.1 mph N/A   Clear
10:15 PM 72.9 °F 34.5 °F 25% 29.97 in 10.0 mi NNE 10.4 mph 17.3 mph N/A   Clear
10:35 PM 72.5 °F 35.8 °F 26% 29.97 in 10.0 mi NNE 10.4 mph - N/A   Clear
10:55 PM 71.1 °F 34.0 °F 26% 29.97 in 10.0 mi North 10.4 mph - N/A   Clear
11:15 PM 71.1 °F 34.9 °F 27% 29.97 in 10.0 mi North 4.6 mph - N/A   Clear
11:35 PM 71.4 °F 35.2 °F 27% 29.97 in 10.0 mi North 6.9 mph - N/A   Clear
11:55 PM 69.8 °F 35.6 °F 28% 29.97 in 10.0 mi North 9.2 mph - N/A   Clear